IK3XJT Weather Reports


time (UTC)temp
C
wind
direction
speed
KPH
gust
KPH
rain 1hr
cm
rain 24hr
cm
rain mn
cm
humidity
%
barometer
mb
20260502231352 14 191 0.0 0.0 0.00 0.00 0.00 67 1018.3
20260502230912 14 190 0.0 0.0 0.00 0.00 0.00 67 1018.3
20260502230334 15 191 0.0 0.0 0.00 0.00 0.00 66 1018.3
20260502225821 15 190 0.0 0.0 0.00 0.00 0.00 66 1018.3
20260502225321 15 190 0.0 0.0 0.00 0.00 0.00 65 1018.3
20260502224829 15 191 0.0 0.0 0.00 0.00 0.00 65 1018.4
20260502223826 15 191 0.0 0.0 0.00 0.00 0.00 64 1018.4
20260502223346 15 191 0.0 0.0 0.00 0.00 0.00 64 1018.4
20260502222900 15 190 0.0 0.0 0.00 0.00 0.00 63 1018.4
20260502222328 16 190 0.0 0.0 0.00 0.00 0.00 62 1018.4
20260502221852 16 191 0.0 0.0 0.00 0.00 0.00 60 1018.4
20260502221314 16 191 0.0 0.0 0.00 0.00 0.00 56 1018.4
20260502220844 16 190 0.0 0.0 0.00 0.00 0.00 56 1018.4
20260502220341 16 191 0.0 0.0 0.00 0.00 0.00 56 1018.3
20260502215925 17 190 0.0 0.0 0.00 0.00 0.00 56 1018.3
20260502214816 17 191 0.0 0.0 0.00 0.00 0.00 55 1018.3
20260502214320 17 191 0.0 0.0 0.00 0.00 0.00 55 1018.3
20260502213823 17 191 0.0 0.0 0.00 0.00 0.00 54 1018.3
20260502213345 17 191 0.0 0.0 0.00 0.00 0.00 54 1018.3
20260502212829 17 191 0.0 0.0 0.00 0.00 0.00 54 1018.3
20260502212329 17 190 0.0 0.0 0.00 0.00 0.00 54 1018.3
20260502211815 17 191 0.0 0.0 0.00 0.00 0.00 53 1018.3
20260502211320 17 191 0.0 0.0 0.00 0.00 0.00 53 1018.3
20260502210843 17 190 0.0 0.0 0.00 0.00 0.00 53 1018.3
20260502210329 17 191 0.0 0.0 0.00 0.00 0.00 53 1018.3
20260502205920 18 191 0.0 0.0 0.00 0.00 0.00 53 1018.3
20260502205341 18 191 0.0 0.0 0.00 0.00 0.00 53 1018.3
20260502204820 18 190 0.0 0.0 0.00 0.00 0.00 52 1018.4
20260502204326 18 190 0.0 0.0 0.00 0.00 0.00 52 1018.4
20260502203850 18 190 0.0 0.0 0.00 0.00 0.00 52 1018.4
20260502203313 18 190 0.0 0.0 0.00 0.00 0.00 52 1018.4
20260502202838 18 190 0.0 0.0 0.00 0.00 0.00 53 1018.4
20260502202343 18 190 0.0 0.0 0.00 0.00 0.00 53 1018.4
20260502201828 18 190 0.0 0.0 0.00 0.00 0.00 53 1018.4
20260502201351 18 190 0.0 0.0 0.00 0.00 0.00 53 1018.4
20260502200834 18 190 0.0 0.0 0.00 0.00 0.00 53 1018.4
20260502200335 18 190 0.0 0.0 0.00 0.00 0.00 54 1018.4
20260502195815 18 190 0.0 0.0 0.00 0.00 0.00 54 1018.4
20260502195342 18 190 0.0 0.0 0.00 0.00 0.00 54 1018.4
20260502194828 18 190 0.0 0.0 0.00 0.00 0.00 54 1018.4
20260502194409 18 190 0.0 0.0 0.00 0.00 0.00 54 1018.4
20260502193849 18 190 0.0 0.0 0.00 0.00 0.00 55 1018.4
20260502193351 19 190 0.0 0.0 0.00 0.00 0.00 56 1018.3
20260502192931 19 190 0.0 0.0 0.00 0.00 0.00 56 1018.3
20260502192349 19 190 0.0 0.0 0.00 0.00 0.00 57 1018.3
20260502191831 19 190 0.0 0.0 0.00 0.00 0.00 56 1018.3
20260502191314 20 190 0.0 0.0 0.00 0.00 0.00 56 1018.3
20260502190938 20 190 0.0 0.0 0.00 0.00 0.00 56 1018.3
20260502190352 20 190 0.0 0.0 0.00 0.00 0.00 55 1018.1
20260502185840 20 190 0.0 0.0 0.00 0.00 0.00 55 1018.1
20260502185339 20 190 0.0 0.0 0.00 0.00 0.00 54 1018.1
20260502184839 20 190 0.0 0.0 0.00 0.00 0.00 53 1018.0
20260502184428 20 190 0.0 0.0 0.00 0.00 0.00 53 1018.0
20260502183849 21 190 0.0 0.0 0.00 0.00 0.00 51 1018.0
20260502183331 21 190 0.0 0.0 0.00 0.00 0.00 51 1018.0
20260502182327 21 190 0.0 0.0 0.00 0.00 0.00 50 1017.9
20260502181928 21 190 0.0 0.0 0.00 0.00 0.00 49 1017.9
20260502181345 21 190 0.0 0.0 0.00 0.00 0.00 49 1017.9
20260502180849 21 190 0.0 0.0 0.00 0.00 0.00 48 1017.9
20260502180408 21 190 0.0 0.0 0.00 0.00 0.00 48 1017.9
20260502170351 22 173 6.4 12.9 0.00 0.00 0.00 46 1018.0
20260502163826 23 158 4.8 12.9 0.00 0.00 0.00 44 1018.2
20260502163330 23 135 8.0 14.5 0.00 0.00 0.00 44 1018.2
20260502162853 23 169 8.0 16.1 0.00 0.00 0.00 44 1018.2
20260502162336 23 177 9.7 14.5 0.00 0.00 0.00 43 1018.2
20260502161839 23 213 6.4 17.7 0.00 0.00 0.00 43 1018.3
20260502161319 23 159 11.3 22.5 0.00 0.00 0.00 42 1018.3
20260502160825 23 192 8.0 22.5 0.00 0.00 0.00 42 1018.3
20260502160326 23 190 9.7 17.7 0.00 0.00 0.00 42 1018.4
20260502151822 25 225 8.0 17.7 0.00 0.00 0.00 33 1018.9
20260502151332 25 234 8.0 17.7 0.00 0.00 0.00 33 1018.9
20260502150824 25 203 6.4 12.9 0.00 0.00 0.00 32 1018.9
20260502150334 25 223 3.2 17.7 0.00 0.00 0.00 34 1018.9
20260502130329 25 267 4.8 14.5 0.00 0.00 0.00 33 1020.4
20260502123344 25 246 4.8 14.5 0.00 0.00 0.00 32 1020.9
20260502122828 24 240 0.0 20.9 0.00 0.00 0.00 32 1020.9
20260502122435 24 235 11.3 20.9 0.00 0.00 0.00 33 1020.9
20260502121839 24 241 8.0 20.9 0.00 0.00 0.00 33 1021.1
20260502121318 25 281 3.2 20.9 0.00 0.00 0.00 32 1021.1
20260502120856 25 211 8.0 16.1 0.00 0.00 0.00 31 1021.1
20260502120318 25 278 4.8 11.3 0.00 0.00 0.00 33 1021.3
20260502115842 24 244 3.2 11.3 0.00 0.00 0.00 34 1021.3
20260502115348 23 286 1.6 16.1 0.00 0.00 0.00 33 1021.3
20260502114828 23 217 8.0 16.1 0.00 0.00 0.00 34 1021.5
20260502114328 23 190 3.2 16.1 0.00 0.00 0.00 34 1021.5
20260502113911 24 231 6.4 12.9 0.00 0.00 0.00 33 1021.5
20260502113322 24 200 1.6 16.1 0.00 0.00 0.00 34 1021.8
20260502112823 23 207 8.0 14.5 0.00 0.00 0.00 34 1021.8
20260502111818 23 214 6.4 22.5 0.00 0.00 0.00 34 1022.0
20260502111322 23 281 3.2 19.3 0.00 0.00 0.00 35 1022.0
20260502110832 23 284 9.7 19.3 0.00 0.00 0.00 34 1022.0
20260502110333 23 256 9.7 19.3 0.00 0.00 0.00 35 1022.0
20260502105834 23 250 3.2 19.3 0.00 0.00 0.00 36 1022.1
20260502105317 23 265 9.7 19.3 0.00 0.00 0.00 35 1022.1
20260502104819 23 263 8.0 19.3 0.00 0.00 0.00 35 1022.4
20260502104344 23 205 4.8 14.5 0.00 0.00 0.00 35 1022.4
20260502103850 23 209 9.7 14.5 0.00 0.00 0.00 35 1022.4
20260502103330 23 194 4.8 12.9 0.00 0.00 0.00 36 1022.5
20260502102816 22 261 8.0 17.7 0.00 0.00 0.00 36 1022.5
20260502102339 23 284 11.3 17.7 0.00 0.00 0.00 36 1022.5
20260502101859 23 224 8.0 14.5 0.00 0.00 0.00 37 1022.6
20260502101318 23 224 4.8 14.5 0.00 0.00 0.00 37 1022.6
20260502100858 22 217 6.4 14.5 0.00 0.00 0.00 38 1022.6
20260502100337 22 207 1.6 11.3 0.00 0.00 0.00 38 1022.9
20260502091327 21 242 0.0 0.0 0.00 0.00 0.00 41 1023.1
20260502090827 21 242 0.0 0.0 0.00 0.00 0.00 41 1023.1
20260502090319 21 241 0.0 0.0 0.00 0.00 0.00 42 1023.2
20260502071353 16 311 0.0 6.4 0.00 0.00 0.00 59 1023.9
20260502070327 16 269 0.0 0.0 0.00 0.00 0.00 60 1024.0
20260502065847 15 261 0.0 0.0 0.00 0.00 0.00 60 1024.0
20260502065409 15 252 0.0 0.0 0.00 0.00 0.00 61 1024.0
20260502064828 15 252 0.0 0.0 0.00 0.00 0.00 61 1024.0
20260502064351 15 244 0.0 0.0 0.00 0.00 0.00 61 1024.0
20260502063917 15 242 0.0 0.0 0.00 0.00 0.00 61 1024.0
20260502063339 15 242 0.0 0.0 0.00 0.00 0.00 63 1024.0
20260502062819 15 243 0.0 0.0 0.00 0.00 0.00 64 1024.0
20260502062343 14 244 0.0 0.0 0.00 0.00 0.00 64 1024.0
20260502061320 14 244 0.0 0.0 0.00 0.00 0.00 67 1024.0
20260502060844 13 244 0.0 0.0 0.00 0.00 0.00 67 1024.0
20260502060327 13 244 0.0 0.0 0.00 0.00 0.00 68 1024.0
20260502055852 13 244 0.0 0.0 0.00 0.00 0.00 69 1024.0
20260502055318 12 244 0.0 0.0 0.00 0.00 0.00 70 1024.0
20260502054821 12 244 0.0 0.0 0.00 0.00 0.00 71 1024.0
20260502054338 12 244 0.0 0.0 0.00 0.00 0.00 71 1024.0
20260502053825 12 244 0.0 0.0 0.00 0.00 0.00 71 1024.0
20260502053329 11 244 0.0 0.0 0.00 0.00 0.00 72 1024.0
20260502052816 11 244 0.0 0.0 0.00 0.00 0.00 72 1024.0
20260502052400 11 244 0.0 0.0 0.00 0.00 0.00 72 1024.0
20260502051842 11 244 0.0 0.0 0.00 0.00 0.00 73 1023.9
20260502051321 10 244 0.0 0.0 0.00 0.00 0.00 74 1023.9
20260502050831 10 244 0.0 0.0 0.00 0.00 0.00 75 1023.9
20260502050316 10 244 0.0 0.0 0.00 0.00 0.00 76 1023.8
20260502045820 10 244 0.0 0.0 0.00 0.00 0.00 76 1023.8
20260502044832 9 244 0.0 0.0 0.00 0.00 0.00 77 1023.8
20260502044353 9 244 0.0 0.0 0.00 0.00 0.00 78 1023.8
20260502043816 8 244 0.0 0.0 0.00 0.00 0.00 77 1023.8
20260502043350 8 245 0.0 0.0 0.00 0.00 0.00 77 1023.8
20260502042831 8 244 0.0 0.0 0.00 0.00 0.00 77 1023.7
20260502042356 8 245 0.0 0.0 0.00 0.00 0.00 77 1023.7
20260502041815 8 244 0.0 0.0 0.00 0.00 0.00 77 1023.7
20260502041326 8 244 0.0 0.0 0.00 0.00 0.00 77 1023.7
20260502040903 8 244 0.0 0.0 0.00 0.00 0.00 77 1023.7
20260502040343 8 245 0.0 0.0 0.00 0.00 0.00 77 1023.8
20260502035929 8 245 0.0 0.0 0.00 0.00 0.00 77 1023.8
20260502035332 8 244 0.0 0.0 0.00 0.00 0.00 77 1023.8
20260502034820 8 245 0.0 0.0 0.00 0.00 0.00 77 1023.7
20260502034323 8 244 0.0 0.0 0.00 0.00 0.00 77 1023.7
20260502033923 8 244 0.0 0.0 0.00 0.00 0.00 77 1023.7
20260502033328 8 245 0.0 0.0 0.00 0.00 0.00 77 1023.7
20260502032854 8 245 0.0 0.0 0.00 0.00 0.00 77 1023.7
20260502032318 8 244 0.0 0.0 0.00 0.00 0.00 77 1023.7
20260502031844 8 244 0.0 0.0 0.00 0.00 0.00 77 1023.8
20260502031344 8 244 0.0 0.0 0.00 0.00 0.00 77 1023.8
20260502030826 8 245 0.0 0.0 0.00 0.00 0.00 77 1023.8
20260502030407 8 245 0.0 0.0 0.00 0.00 0.00 77 1024.0
20260502025849 8 245 0.0 0.0 0.00 0.00 0.00 77 1024.0
20260502025332 8 245 0.0 0.0 0.00 0.00 0.00 77 1024.0
20260502024818 8 244 0.0 0.0 0.00 0.00 0.00 77 1024.1
20260502024321 9 245 0.0 0.0 0.00 0.00 0.00 76 1024.1
20260502023822 9 245 0.0 0.0 0.00 0.00 0.00 76 1024.1
20260502023402 9 244 0.0 0.0 0.00 0.00 0.00 75 1024.0
20260502022904 9 244 0.0 0.0 0.00 0.00 0.00 75 1024.0
20260502022343 9 244 0.0 0.0 0.00 0.00 0.00 76 1024.0
20260502021412 9 244 0.0 0.0 0.00 0.00 0.00 75 1024.1
20260502020929 9 244 0.0 0.0 0.00 0.00 0.00 76 1024.1
20260502020310 9 244 0.0 0.0 0.00 0.00 0.00 75 1024.0
20260502015856 9 244 0.0 0.0 0.00 0.00 0.00 75 1024.0
20260502015322 9 244 0.0 0.0 0.00 0.00 0.00 75 1024.0
20260502014827 9 244 0.0 0.0 0.00 0.00 0.00 75 1024.1
20260502014351 9 245 0.0 0.0 0.00 0.00 0.00 75 1024.1
20260502013914 9 244 0.0 0.0 0.00 0.00 0.00 74 1024.1
20260502013315 10 244 0.0 0.0 0.00 0.00 0.00 74 1024.0
20260502012327 10 244 0.0 0.0 0.00 0.00 0.00 73 1024.0
20260502011828 10 245 0.0 0.0 0.00 0.00 0.00 73 1024.0
20260502011317 10 244 0.0 0.0 0.00 0.00 0.00 73 1023.9
20260502010838 10 244 0.0 0.0 0.00 0.00 0.00 73 1023.9
20260502010318 10 244 0.0 0.0 0.00 0.00 0.00 72 1023.9
20260502005842 10 244 0.0 0.0 0.00 0.00 0.00 70 1023.9
20260502005322 10 244 0.0 0.0 0.00 0.00 0.00 70 1023.9
20260502004845 10 244 0.0 0.0 0.00 0.00 0.00 70 1024.0
20260502004425 10 244 0.0 0.0 0.00 0.00 0.00 68 1024.0
20260502003823 10 245 0.0 0.0 0.00 0.00 0.00 67 1024.0
20260502003331 11 244 0.0 0.0 0.00 0.00 0.00 67 1024.0
20260502002834 11 244 0.0 0.0 0.00 0.00 0.00 67 1024.0
20260502002435 11 244 0.0 0.0 0.00 0.00 0.00 68 1024.0
20260502001834 11 244 0.0 0.0 0.00 0.00 0.00 68 1024.0
20260502001335 11 245 0.0 0.0 0.00 0.00 0.00 68 1024.1
20260502000816 11 245 0.0 0.0 0.00 0.00 0.00 66 1024.1
20260502000317 11 244 0.0 0.0 0.00 0.00 0.00 65 1024.1
20260501235845 11 244 0.0 0.0 0.00 0.00 0.00 64 1024.1
20260501235330 11 244 0.0 0.0 0.00 0.00 0.00 64 1024.1
20260501234913 11 244 0.0 0.0 0.00 0.00 0.00 63 1024.1
20260501234355 11 244 0.0 0.0 0.00 0.00 0.00 63 1024.1
20260501233818 11 244 0.0 0.0 0.00 0.00 0.00 62 1024.1
20260501233323 11 244 0.0 0.0 0.00 0.00 0.00 62 1024.1
20260501232826 12 244 0.0 0.0 0.00 0.00 0.00 62 1024.1
20260501232326 12 244 0.0 0.0 0.00 0.00 0.00 62 1024.1